Location: Newark
(13.6797°N, 8.5297°E)
Time: 03:36:11
(UTC+00:00)

Courier 1B Rocket - All Passes

Search period start: 18 January 2020 00:00
Search period end: 28 January 2020 00:00
Orbit: 920 x 1202 km, 28.2° (Epoch: 17 January)

Date Brightness Start Highest point End Pass type
(mag) Time Alt. Az. Time Alt. Az. Time Alt. Az.
18 Jan - 08:33:09 10° S 08:36:01 12° SSE 08:38:49 10° SE daylight
18 Jan - 10:23:01 10° SW 10:29:48 45° SSE 10:36:08 10° E daylight
18 Jan - 12:16:36 10° WSW 12:23:22 59° NNW 12:29:41 10° NE daylight
18 Jan - 14:12:07 10° WNW 14:17:24 26° NNW 14:22:32 10° NE daylight
18 Jan - 16:07:27 10° NW 16:12:02 21° N 16:16:36 10° NE daylight
18 Jan - 18:00:51 10° NW 18:06:28 34° NNE 18:12:13 10° E visible
18 Jan - 19:53:48 10° WNW 20:00:10 86° SSW 20:06:54 10° ESE visible
18 Jan - 21:48:20 10° W 21:53:37 25° SSW 21:59:12 10° SSE night (unlit)
19 Jan - 09:22:19 10° SSW 09:28:38 31° SSE 09:34:35 10° E daylight
19 Jan - 11:15:06 10° WSW 11:22:13 84° NNW 11:28:50 10° ENE daylight
19 Jan - 13:10:09 10° W 13:16:04 32° NNW 13:21:43 10° NE daylight
19 Jan - 15:05:56 10° NW 15:10:35 21° N 15:15:09 10° NE daylight
19 Jan - 17:00:00 10° NW 17:05:11 27° NNE 17:10:25 10° ENE daylight
19 Jan - 18:52:53 10° WNW 18:59:06 66° NNE 19:05:35 10° ESE visible
19 Jan - 20:46:41 10° W 20:52:31 37° SSW 20:58:44 10° SE visible
20 Jan - 08:22:01 10° SSW 08:27:24 21° SSE 08:32:32 10° ESE daylight
20 Jan - 10:13:48 10° SW 10:21:04 69° SSE 10:27:49 10° ENE daylight
20 Jan - 12:08:15 10° W 12:14:48 43° NNW 12:20:57 10° NE daylight
20 Jan - 14:04:08 10° WNW 14:09:08 23° N 14:13:59 10° NE daylight
20 Jan - 15:58:57 10° NW 16:03:50 23° N 16:08:39 10° ENE daylight
20 Jan - 17:52:04 10° NW 17:58:01 46° NNE 18:04:06 10° E visible
20 Jan - 19:45:21 10° WNW 19:51:30 56° SSW 19:57:58 10° SE visible
20 Jan - 21:41:22 10° WSW 21:45:00 15° SSW 21:48:45 10° S night (unlit)
21 Jan - 07:22:29 10° S 07:26:03 14° SSE 07:29:33 10° ESE daylight
21 Jan - 09:12:44 10° SW 09:19:54 47° SSE 09:26:35 10° ENE daylight
21 Jan - 11:06:29 10° WSW 11:13:34 59° NNW 11:20:09 10° NE daylight
21 Jan - 13:02:08 10° WNW 13:07:43 27° NNW 13:13:02 10° NE daylight
21 Jan - 14:57:39 10° NW 15:02:24 21° N 15:07:02 10° NE daylight
21 Jan - 16:51:12 10° NW 16:56:51 34° NNE 17:02:29 10° E daylight
21 Jan - 18:44:16 10° WNW 18:50:30 84° SSW 18:56:58 10° ESE visible
21 Jan - 20:38:57 10° W 20:43:52 23° SSW 20:49:00 10° SSE visible
22 Jan - 08:11:59 10° SSW 08:18:40 33° SSE 08:25:01 10° E daylight
22 Jan - 10:04:53 10° WSW 10:12:21 83° NNW 10:19:16 10° ENE daylight
22 Jan - 12:00:05 10° W 12:06:20 33° NNW 12:12:13 10° NE daylight
22 Jan - 13:56:01 10° NW 14:00:56 21° N 14:05:40 10° NE daylight
22 Jan - 15:50:15 10° NW 15:55:35 27° NNE 16:00:48 10° ENE daylight
22 Jan - 17:43:17 10° WNW 17:49:29 67° NNE 17:55:46 10° ESE visible
22 Jan - 19:37:12 10° W 19:42:49 35° SSW 19:48:41 10° SE visible
23 Jan - 07:11:38 10° SSW 07:17:23 22° SSE 07:22:56 10° E daylight
23 Jan - 09:03:32 10° SW 09:11:08 71° SSE 09:18:13 10° ENE daylight
23 Jan - 10:58:06 10° W 11:04:59 44° NNW 11:11:25 10° NE daylight
23 Jan - 12:54:06 10° WNW 12:59:26 23° N 13:04:31 10° NE daylight
23 Jan - 14:49:06 10° NW 14:54:11 24° N 14:59:08 10° ENE daylight
23 Jan - 16:42:22 10° NW 16:48:25 47° NNE 16:54:24 10° E daylight
23 Jan - 18:35:48 10° WNW 18:41:52 54° SSW 18:48:03 10° SE visible
23 Jan - 20:32:10 10° WSW 20:35:16 14° SSW 20:38:24 10° S visible
24 Jan - 06:12:00 10° S 06:16:01 15° SSE 06:19:59 10° ESE daylight
24 Jan - 08:02:27 10° SW 08:09:53 50° SSE 08:16:55 10° ENE daylight
24 Jan - 09:56:16 10° WSW 10:03:40 59° NNW 10:10:34 10° NE daylight
24 Jan - 11:52:01 10° WNW 11:57:56 28° NNW 12:03:33 10° NE daylight
24 Jan - 13:47:40 10° NW 13:52:44 22° N 13:57:35 10° NE daylight
24 Jan - 15:41:25 10° NW 15:47:14 35° NNE 15:52:53 10° E daylight
24 Jan - 17:34:37 10° WNW 17:40:54 82° SSW 17:47:11 10° ESE visible
24 Jan - 19:29:31 10° W 19:34:10 22° SSW 19:38:56 10° SSE visible
25 Jan - 07:01:42 10° SSW 07:08:36 34° SSE 07:15:17 10° E daylight
25 Jan - 08:54:38 10° WSW 09:02:22 82° NNW 09:09:37 10° ENE daylight
25 Jan - 10:49:54 10° W 10:56:29 34° NNW 11:02:40 10° NE daylight
25 Jan - 12:45:56 10° NW 12:51:12 22° N 12:56:13 10° NE daylight
25 Jan - 14:40:20 10° NW 14:45:55 29° NNE 14:51:18 10° ENE daylight
25 Jan - 16:33:33 10° WNW 16:39:54 69° NNE 16:46:06 10° ESE daylight
25 Jan - 18:27:38 10° W 18:33:11 34° SSW 18:38:48 10° SSE visible
26 Jan - 06:01:21 10° SSW 06:07:18 23° SSE 06:13:09 10° E daylight
26 Jan - 07:53:17 10° SW 08:01:04 73° SSE 08:08:29 10° ENE daylight
26 Jan - 09:47:52 10° W 09:55:03 44° NNW 10:01:48 10° NE daylight
26 Jan - 11:43:56 10° WNW 11:49:39 25° N 11:55:03 10° NE daylight
26 Jan - 13:39:03 10° NW 13:44:31 25° N 13:49:41 10° ENE daylight
26 Jan - 15:32:31 10° NW 15:38:48 49° NNE 15:44:49 10° E daylight
26 Jan - 17:26:09 10° WNW 17:32:15 52° SSW 17:38:17 10° SE daylight
26 Jan - 19:22:55 10° SW 19:25:34 13° SSW 19:28:13 10° S visible
27 Jan - 05:01:43 10° S 05:05:56 15° SSE 05:10:09 10° ESE visible
27 Jan - 06:52:13 10° SW 06:59:46 51° SSE 07:07:07 10° ENE daylight
27 Jan - 08:46:01 10° WSW 08:53:39 59° NNW 09:00:53 10° NE daylight
27 Jan - 10:41:48 10° WNW 10:48:04 29° NNW 10:54:00 10° NE daylight
27 Jan - 12:37:32 10° NW 12:42:59 23° N 12:48:10 10° NE daylight
27 Jan - 14:31:27 10° NW 14:37:34 37° NNE 14:43:23 10° E daylight
27 Jan - 16:24:51 10° WNW 16:31:17 80° SSW 16:37:32 10° ESE daylight
27 Jan - 18:19:58 10° WSW 18:24:31 21° SSW 18:29:04 10° SSE visible
